Time,TemperatureF,DewpointF,PressureIn,WindDirection,WindDirectionDegrees,WindSpeedMPH,WindSpeedGustMPH,Humidity,HourlyPrecipIn,Conditions,Clouds,dailyrainin,SoftwareType,DateUTC
2013-07-22 07:20:00,70.7,65.6,30.18,NW,314,1.0,1.0,84,0.00,,,0.00,Wunderground v.1.15,2013-07-22 14:20:00,
2013-07-22 07:30:00,71.8,65.7,30.19,NE,38,1.0,2.0,81,0.00,,,0.00,Wunderground v.1.15,2013-07-22 14:30:00,
2013-07-22 07:40:00,73.8,66.5,30.19,NNE,16,2.0,2.0,78,0.00,,,0.00,Wunderground v.1.15,2013-07-22 14:40:00,
2013-07-22 07:50:00,73.9,66.2,30.19,NE,34,2.0,4.0,77,0.00,,,0.00,Wunderground v.1.15,2013-07-22 14:50:00,
2013-07-22 08:00:00,74.1,65.7,30.19,NE,53,2.0,3.0,75,0.00,,,0.00,Wunderground v.1.15,2013-07-22 15:00:00,
2013-07-22 08:10:00,74.7,66.2,30.19,North,352,2.0,4.0,75,0.00,,,0.00,Wunderground v.1.15,2013-07-22 15:10:00,
2013-07-22 08:20:00,76.4,65.9,30.19,NNW,339,3.0,4.0,70,0.00,,,0.00,Wunderground v.1.15,2013-07-22 15:20:00,
2013-07-22 08:30:00,76.8,66.3,30.20,ENE,57,3.0,3.0,70,0.00,,,0.00,Wunderground v.1.15,2013-07-22 15:30:00,
2013-07-22 08:40:00,77.9,66.1,30.20,NE,38,3.0,3.0,67,0.00,,,0.00,Wunderground v.1.15,2013-07-22 15:40:00,
2013-07-22 08:50:00,78.3,66.4,30.19,NE,49,2.0,3.0,67,0.00,,,0.00,Wunderground v.1.15,2013-07-22 15:50:00,
2013-07-22 09:00:00,78.9,65.7,30.19,NW,324,2.0,2.0,64,0.00,,,0.00,Wunderground v.1.15,2013-07-22 16:00:00,
2013-07-22 09:10:00,79.6,65.9,30.19,NNW,342,2.0,2.0,63,0.00,,,0.00,Wunderground v.1.15,2013-07-22 16:10:00,
2013-07-22 09:20:00,79.7,65.5,30.19,NE,37,2.0,3.0,62,0.00,,,0.00,Wunderground v.1.15,2013-07-22 16:20:00,
2013-07-22 09:30:00,80.7,66.5,30.20,NNE,17,2.0,2.0,62,0.00,,,0.00,Wunderground v.1.15,2013-07-22 16:30:00,
2013-07-22 09:40:00,81.0,65.3,30.19,SSE,150,2.0,2.0,59,0.00,,,0.00,Wunderground v.1.15,2013-07-22 16:40:00,
2013-07-22 09:50:00,80.7,64.5,30.19,ENE,57,2.0,5.0,58,0.00,,,0.00,Wunderground v.1.15,2013-07-22 16:50:00,
2013-07-22 10:00:00,80.7,65.5,30.19,East,94,2.0,2.0,60,0.00,,,0.00,Wunderground v.1.15,2013-07-22 17:00:00,
2013-07-22 10:10:00,81.6,65.4,30.19,North,3,2.0,3.0,58,0.00,,,0.00,Wunderground v.1.15,2013-07-22 17:10:00,
2013-07-22 10:20:00,82.5,66.7,30.19,ENE,60,2.0,2.0,59,0.00,,,0.00,Wunderground v.1.15,2013-07-22 17:20:00,
2013-07-22 10:30:00,83.9,66.5,30.19,NE,45,1.0,3.0,56,0.00,,,0.00,Wunderground v.1.15,2013-07-22 17:30:00,
2013-07-22 10:40:00,84.2,65.8,30.19,SE,134,2.0,3.0,54,0.00,,,0.00,Wunderground v.1.15,2013-07-22 17:40:00,
2013-07-22 10:50:00,83.9,65.5,30.18,NE,52,1.0,1.0,54,0.00,,,0.00,Wunderground v.1.15,2013-07-22 17:50:00,
2013-07-22 11:00:00,84.4,65.9,30.18,NNE,32,3.0,4.0,54,0.00,,,0.00,Wunderground v.1.15,2013-07-22 18:00:00,
2013-07-22 11:10:00,85.7,64.9,30.18,ENE,58,4.0,4.0,50,0.00,,,0.00,Wunderground v.1.15,2013-07-22 18:10:00,
2013-07-22 11:30:00,83.4,65.0,30.18,North,354,2.0,2.0,54,0.00,,,0.00,Wunderground v.1.15,2013-07-22 18:30:00,
2013-07-22 11:40:00,83.1,64.7,30.18,SSE,155,2.0,2.0,54,0.00,,,0.00,Wunderground v.1.15,2013-07-22 18:40:00,
2013-07-22 11:50:00,85.8,65.6,30.17,East,81,1.0,1.0,51,0.00,,,0.00,Wunderground v.1.15,2013-07-22 18:50:00,
2013-07-22 12:00:00,84.2,65.2,30.17,NNE,30,2.0,2.0,53,0.00,,,0.00,Wunderground v.1.15,2013-07-22 19:00:00,
2013-07-22 12:10:00,83.9,64.4,30.17,NW,305,2.0,3.0,52,0.00,,,0.00,Wunderground v.1.15,2013-07-22 19:10:00,
2013-07-22 12:20:00,83.6,64.1,30.16,NNE,23,2.0,2.0,52,0.00,,,0.00,Wunderground v.1.15,2013-07-22 19:20:00,
2013-07-22 12:30:00,83.2,63.7,30.16,WSW,239,2.0,2.0,52,0.00,,,0.00,Wunderground v.1.15,2013-07-22 19:30:00,
2013-07-22 12:40:00,82.8,64.5,30.16,South,180,2.0,3.0,54,0.00,,,0.00,Wunderground v.1.15,2013-07-22 19:40:00,
2013-07-22 12:50:00,82.3,65.0,30.16,WSW,256,5.0,5.0,56,0.00,,,0.00,Wunderground v.1.15,2013-07-22 19:50:00,
2013-07-22 13:00:00,81.4,65.2,30.15,SW,224,5.0,5.0,58,0.00,,,0.00,Wunderground v.1.15,2013-07-22 20:00:00,
2013-07-22 13:10:00,80.9,64.2,30.15,South,187,4.0,4.0,57,0.00,,,0.00,Wunderground v.1.15,2013-07-22 20:10:00,
2013-07-22 13:20:00,81.4,64.7,30.15,West,274,2.0,2.0,57,0.00,,,0.00,Wunderground v.1.15,2013-07-22 20:20:00,
2013-07-22 13:30:00,83.2,63.7,30.14,SSW,199,2.0,3.0,52,0.00,,,0.00,Wunderground v.1.15,2013-07-22 20:30:00,
2013-07-22 13:40:00,84.1,61.7,30.13,NW,304,2.0,2.0,47,0.00,,,0.00,Wunderground v.1.15,2013-07-22 20:40:00,
2013-07-22 13:50:00,84.5,62.1,30.13,SW,225,2.0,2.0,47,0.00,,,0.00,Wunderground v.1.15,2013-07-22 20:50:00,
2013-07-22 14:00:00,87.0,62.5,30.13,SSE,161,4.0,4.0,44,0.00,,,0.00,Wunderground v.1.15,2013-07-22 21:00:00,
2013-07-22 14:10:00,89.3,62.5,30.13,SSE,167,4.0,4.0,41,0.00,,,0.00,Wunderground v.1.15,2013-07-22 21:10:00,
2013-07-22 14:20:00,91.0,61.9,30.12,NE,53,2.0,3.0,38,0.00,,,0.00,Wunderground v.1.15,2013-07-22 21:20:00,
2013-07-22 14:30:00,90.2,61.2,30.12,WNW,296,2.0,2.0,38,0.00,,,0.00,Wunderground v.1.15,2013-07-22 21:30:00,
2013-07-22 14:40:00,91.0,61.1,30.12,SSW,195,2.0,2.0,37,0.00,,,0.00,Wunderground v.1.15,2013-07-22 21:40:00,
2013-07-22 14:50:00,89.2,61.0,30.12,SSE,163,3.0,3.0,39,0.00,,,0.00,Wunderground v.1.15,2013-07-22 21:50:00,
2013-07-22 15:00:00,88.5,61.8,30.12,WSW,251,2.0,2.0,41,0.00,,,0.00,Wunderground v.1.15,2013-07-22 22:00:00,
2013-07-22 15:10:00,87.9,61.3,30.12,East,82,2.0,2.0,41,0.00,,,0.00,Wunderground v.1.15,2013-07-22 22:10:00,
2013-07-22 15:20:00,87.0,62.5,30.11,WSW,244,3.0,3.0,44,0.00,,,0.00,Wunderground v.1.15,2013-07-22 22:20:00,
2013-07-22 15:30:00,86.5,62.0,30.11,SSW,194,3.0,3.0,44,0.00,,,0.00,Wunderground v.1.15,2013-07-22 22:30:00,
2013-07-22 15:40:00,86.1,61.6,30.11,SSW,210,4.0,4.0,44,0.00,,,0.00,Wunderground v.1.15,2013-07-22 22:40:00,
2013-07-22 15:50:00,86.1,62.9,30.11,North,353,3.0,9.0,46,0.00,,,0.00,Wunderground v.1.15,2013-07-22 22:50:00,
2013-07-22 16:00:00,83.2,63.2,30.12,NW,304,5.0,5.0,51,0.00,,,0.00,Wunderground v.1.15,2013-07-22 23:00:00,
2013-07-22 16:10:00,83.2,63.7,30.12,West,277,3.0,3.0,52,0.00,,,0.00,Wunderground v.1.15,2013-07-22 23:10:00,
2013-07-22 16:20:00,84.3,63.6,30.12,NW,307,2.0,3.0,50,0.00,,,0.00,Wunderground v.1.15,2013-07-22 23:20:00,
2013-07-22 16:30:00,83.8,63.2,30.12,SSW,209,5.0,6.0,50,0.00,,,0.00,Wunderground v.1.15,2013-07-22 23:30:00,
2013-07-22 16:40:00,83.6,64.7,30.12,SW,233,4.0,4.0,53,0.00,,,0.00,Wunderground v.1.15,2013-07-22 23:40:00,
2013-07-22 16:50:00,83.8,63.7,30.13,NW,311,3.0,5.0,51,0.00,,,0.00,Wunderground v.1.15,2013-07-22 23:50:00,
2013-07-22 17:00:00,82.7,63.3,30.13,NNW,329,6.0,6.0,52,0.00,,,0.00,Wunderground v.1.15,2013-07-23 00:00:00,
2013-07-22 17:10:00,82.9,63.5,30.12,NW,316,4.0,4.0,52,0.00,,,0.00,Wunderground v.1.15,2013-07-23 00:10:00,
2013-07-22 17:20:00,83.0,63.6,30.12,WNW,293,2.0,2.0,52,0.00,,,0.00,Wunderground v.1.15,2013-07-23 00:20:00,
2013-07-22 17:30:00,83.1,63.1,30.11,North,3,1.0,4.0,51,0.00,,,0.00,Wunderground v.1.15,2013-07-23 00:30:00,
2013-07-22 17:40:00,82.3,62.4,30.12,NNE,16,3.0,4.0,51,0.00,,,0.00,Wunderground v.1.15,2013-07-23 00:40:00,
2013-07-22 17:50:00,80.1,62.5,30.12,ENE,67,3.0,3.0,55,0.00,,,0.00,Wunderground v.1.15,2013-07-23 00:50:00,
2013-07-22 18:00:00,79.2,62.7,30.12,NNW,331,2.0,2.0,57,0.00,,,0.00,Wunderground v.1.15,2013-07-23 01:00:00,
2013-07-22 18:10:00,79.3,62.2,30.11,North,8,3.0,4.0,56,0.00,,,0.00,Wunderground v.1.15,2013-07-23 01:10:00,
2013-07-22 18:20:00,80.0,62.9,30.11,ENE,77,3.0,3.0,56,0.00,,,0.00,Wunderground v.1.15,2013-07-23 01:20:00,
2013-07-22 18:30:00,79.9,63.3,30.11,ENE,60,1.0,2.0,57,0.00,,,0.00,Wunderground v.1.15,2013-07-23 01:30:00,
2013-07-22 18:40:00,79.4,63.3,30.11,NNE,22,2.0,2.0,58,0.00,,,0.00,Wunderground v.1.15,2013-07-23 01:40:00,
2013-07-22 18:50:00,78.7,63.2,30.11,NE,36,2.0,2.0,59,0.00,,,0.00,Wunderground v.1.15,2013-07-23 01:50:00,
2013-07-22 19:00:00,78.3,63.3,30.11,NNE,28,2.0,3.0,60,0.00,,,0.00,Wunderground v.1.15,2013-07-23 02:00:00,
2013-07-22 19:10:00,77.7,64.1,30.11,NNE,23,2.0,2.0,63,0.00,,,0.00,Wunderground v.1.15,2013-07-23 02:10:00,
2013-07-22 19:20:00,77.0,64.3,30.11,North,8,2.0,2.0,65,0.00,,,0.00,Wunderground v.1.15,2013-07-23 02:20:00,
2013-07-22 19:30:00,76.3,64.5,30.12,NNW,328,2.0,2.0,67,0.00,,,0.00,Wunderground v.1.15,2013-07-23 02:30:00,
2013-07-22 19:40:00,76.0,64.7,30.12,NNW,331,1.0,1.0,68,0.00,,,0.00,Wunderground v.1.15,2013-07-23 02:40:00,
2013-07-22 19:50:00,75.5,63.8,30.13,North,6,2.0,2.0,67,0.00,,,0.00,Wunderground v.1.15,2013-07-23 02:50:00,
2013-07-22 20:00:00,75.3,63.2,30.14,North,359,1.0,1.0,66,0.00,,,0.00,Wunderground v.1.15,2013-07-23 03:00:00,
2013-07-22 20:10:00,74.7,63.9,30.14,WNW,302,0.0,1.0,69,0.00,,,0.00,Wunderground v.1.15,2013-07-23 03:10:00,
2013-07-22 20:20:00,74.5,64.5,30.14,NW,320,1.0,2.0,71,0.00,,,0.00,Wunderground v.1.15,2013-07-23 03:20:00,
2013-07-22 20:30:00,74.2,64.6,30.15,WNW,296,1.0,2.0,72,0.00,,,0.00,Wunderground v.1.15,2013-07-23 03:30:00,
2013-07-22 20:40:00,73.5,64.3,30.15,West,274,2.0,2.0,73,0.00,,,0.00,Wunderground v.1.15,2013-07-23 03:40:00,